Member area
Imprimable
Wibrin, 31/03/2012, BEL - Dans les foulées de Gena & Magonette
List of reports > Delhalle - 15.3km - Result
Search: Page: [1]
103 Entries
 
Complains are not accepted anymore. Results are final.
PlaceNrNameAgeNATLeagueTeamRealTimeTkmMoy.ScrPtsCity
1.31HERBET Henri50BELRCASJOGGPLUS58:4758:503:51 15.6051011JALHAY
2.1602PERPETE Jacky52BELRCNAMUR1:02:521:02:554:07 14.5912943TEMPLOUX
3.6BULTOT Christian54BELARCHJOGGPLUS1:03:081:03:084:08 14.5413939SCHALTIN
4.921ROSSI Claude54BELJOGGPLUS1:03:381:03:414:10 14.4218927YVOIR
5.96DEGEIMBRE Michel50BELARCH1:04:231:04:254:13 14.2520914AWAGNE
6.1691WEIDNER Daniel56BEL1:04:511:04:554:15 14.1423905AMAY
7.690LUPCIN Patrick55BELRCNAMUR1:06:121:06:194:21 13.8434877PERWEZ
8.401CADO Paul52BELFLEUJOG.ORG1:06:381:06:444:22 13.7636869LIGNY
9.677PAULUS Philippe51BELESM1:06:571:07:054:24 13.6940862MONT-SUR-MARCHIENNE
10.585MOENS Alain58BELCEPAL1:07:051:07:094:24 13.6741859KRAAINEM
11.983CULLOP Paul51BELENJAMBEE1:07:341:07:374:26 13.5844850BRUXELLES
12.1597MOLITOR Andre51BELARCH1:07:451:07:454:26 13.5545847HARGIMONT
13.645CREMER Patrick54BELFCHA1:08:031:08:064:28 13.4846842HANNUT
14.58HENRY Andre52BELAG RUN TEAM1:09:041:09:084:32 13.2851824LA HULPE
15.1669COLLOT Andre56BEL1:10:261:10:354:37 13.0161798
16.194AUBERT Serge57BELDONDORGANES1:11:041:11:084:39 12.9164787GERPINNES
17.464VIDICK Jean-Luc59BELCACE1:11:341:11:374:41 12.8268777BRUXELLES
18.714MAILIER Christian56BELCRACESM1:11:371:11:454:42 12.8069776ROUX
19.1650LEQUEUX Jacques56BEL1:12:001:12:204:44 12.6972768
20.881VERSTICHEL Alain50BEL1:13:081:13:214:48 12.5285743THUIN
21.837CEUPPENS Paul51BELHAMURABI1:13:421:14:014:51 12.4086735LINT
22.909HUME Yvan59BELNAC1:14:291:14:424:53 12.2987725NIVELLES
23.1636ETIENNE Bernard50BEL1:14:371:14:514:54 12.2791720
24.458DE WULF Luc57BELESM1:15:101:15:224:56 12.1895710
25.498HEYNDRICKX Jan50BELHAMURABI1:15:121:15:324:57 12.1697707BERTEM
26.737DE PESSEMIER Michel55BELACG1:15:081:15:374:57 12.1498707BRAKEL
27.534DUPONT Roger55BELZATOCAP1:15:301:15:574:58 12.0999702BEAUSAINT
28.500CHARLIER Jacky52BELARCH1:16:051:16:094:59 12.06104691BEAURAING
29.1639IGO Michel54BELUACDILAVILE1:16:181:16:285:00 12.01109684SART SAINT LAURENT
30.1655WAERTS Alain59BELACNA1:16:241:16:335:01 11.99110682
31.22DE MASI Gianni59BELFLEU1:17:301:17:365:05 11.83115665WANFERCEE BAULET
32.1589LECOCQ Marc51BELJC THIMEON1:17:561:18:085:07 11.75120655VIELSALM
33.55ROBERTI DE WINGHE Max57BELLACRONVAU1:18:251:18:395:09 11.67123647ARCHENNES
34.1717JOBE Eric50BELTAF1:18:331:18:575:10 11.63125644OCQUIER
35.743RATINCKX Michel55BELRIWAHERMATH1:19:431:19:555:14 11.49131625BIERGES
36.691JADOT Pierre52BELESM1:19:311:20:015:14 11.47133626MARCINELLE
37.465BOSKIN Jean-Claude57BELJCPMF1:20:031:20:175:15 11.44138616STAVELOT
38.1632PLESSIET Henri53BEL6BASE BASTOGNE1:19:481:20:235:16 11.42142615
39.569CLEMENT Serge52BELHRC1:20:091:20:245:16 11.42143610HACHY
40.992LETHE Vincent52BELRONVAU1:20:421:20:575:18 11.34146601TOURINNES-SAINT-LAMBERT
41.623PISCART Pierre52BELMOHAFORESTIERE1:21:001:21:115:19 11.31148596HAVRE
42.205RASSART Patrick54BELACLO1:20:331:21:215:20 11.29151599MORLANWELZ
43.138SORNASSE Pascal53BELSMACSMAC1:21:011:21:335:20 11.26152593
44.104GAUTIER Jacques50BEL1:21:391:21:515:21 11.22156582MEUX
45.930PONCIN Christian53BELMYSTERE1:21:431:21:585:22 11.20159579SPRIMONT
46.224BARBIER Yves52BELUSBWSO BARLIN1:21:291:22:005:22 11.20161580BRAINE-L'ALLEUD
47.1576HENRICOT Eric51BELRCNAMUR1:22:061:22:255:24 11.14164570SAINT MARC
48.984TUYLS Bruno57BELTT WOLVES1:22:471:22:545:26 11.07168559BIERBEEK
49.754LARMINIER Claude58BELSERSERUNNER1:22:531:23:005:26 11.06170557LIEGE
50.1596MEININGER Ulrich52DEUM&H RENNSTEIGTEAM1:22:511:23:195:27 11.02174554KÖLN
51.915JASPART Andre57BEL1:23:131:23:395:29 10.98183542SOURBRODT
52.57ZEGERS Rolland56BELAKGRIM1:23:251:23:455:29 10.96185539
53.71DE HERTOG Daniel53BELGRIMAFRIT 71:23:341:23:545:29 10.94189534GRIMBERGEN
54.561HAINAUT Charles53BEL1:23:381:24:065:30 10.92193529GERPINNES
55.1662GUSTIN Yves51BEL1:23:431:24:135:31 10.90195527
56.849ABRAHAM Luc55BELUSBWROAD TEAM B1:23:441:24:155:31 10.90197525WATERLOO
57.346LELOUP Yves58BELFLEU1:25:041:25:175:35 10.76206503SAINT-AMAND
58.683DE LEENER J.Marie58BELNAC1:25:351:25:395:36 10.72208496LOT
59.296DESSEILLE Ernest58BELRCNAMUR1:25:051:25:475:37 10.70210499WEPION
60.113MASSART Victor59BELACLO1:25:571:26:465:41 10.58215486COUILLET
61.53DIEUDONNE Emile59BELARCH1:26:291:27:115:42 10.53220476
62.1727GODEFROID Gaetan52BEL1:27:111:27:335:44 10.49223466
63.1670BLERET Marc51BEL1:27:121:27:355:44 10.48224465
64.846POELMANS Dominique51BELRCNAMUR1:27:461:28:125:46 10.41229455EVREHAILLES
65.1683DAIGNEUX Guy50BEL1:27:311:28:175:47 10.40232455
66.1652VANDERVORST Rudi56BEL1:27:481:28:315:48 10.37233451
67.166HOUNJE Freddy58BEL1:28:361:29:055:50 10.31234442AUBEL
68.986BIERNAUX Benoit51BELRCNAMUR1:29:021:29:285:51 10.26240433NAMUR
69.276MARIËN Jean-Luc54BELUSBW1:29:131:29:435:52 10.23241430BRUXELLES
70.107EVRARD Pierre51BEL1:29:531:30:165:54 10.17247418MALONNE
71.385BLOMMAERT Edward59BELAVN1:30:231:30:325:56 10.14249411BOUILLON
72.1728DEVOOGHT Guy57BEL1:31:181:31:456:00 10.01259394
73.1678BASTIN Patrick55BEL1:31:481:32:346:03 9.92264384
74.318STICKER Johan53BELOXYGENE1:31:501:32:486:04 9.89266382BIERCEE
75.1577HERIN Jf53BEL1:33:231:33:566:09 9.77278357MARCHE
76.430DUMONT Alain52BELRCNAMUR1:33:391:34:046:09 9.76281352JAMBES
77.208BOUTEFEU Jacques52BELESMRRTCHATELET1:34:011:34:576:13 9.67284346FARCIENNES
78.229HENRY Stephane52BELJCCS1:34:391:35:036:13 9.66285339GEDINNE
79.1612VANHULST Andre53BEL1:35:011:35:536:16 9.58288332MARCHE EN FAMENNE
80.356SAUCIN Luc51BELRRTCHATEL1:35:101:36:076:17 9.55290329CHATELET
81.448ROMAIN Bernard55BELDELT LONG1:37:141:37:376:23 9.40301301CHASTRE
82.443DE ROECK Patrick50BEL1:38:091:38:226:26 9.33304289SERAING
83.1658GRIMONPREZ Patrick59BEL1:38:311:38:496:28 9.29306284
84.1711GILLOTEAUX Benoit55BEL1:40:141:41:026:37 9.09315261
85.971VANHEES Jean-Louis59BEL1:41:381:41:566:40 9.01320244GRAND-LEEZ
86.790FOLIE Yvon55BEL1:41:321:42:246:42 8.97321244AWENNE (SAINT-HUBERT)
87.760STEENPUT Luc Gaston53BEL1:41:541:42:486:44 8.93326237GREZ-DOICEAU
88.755VAN HEULENBERGHE Frank56BEL1:42:401:43:376:47 8.86329227GENT
89.739AZZOLINI Adriano50BELSERSERUNNER1:43:351:44:176:49 8.80334215FLEMALLE
90.678ODEURS Jean-Claude56BELSERSERUNNER1:44:071:44:376:51 8.78336208OTHEE
91.239VANACKERE Eric50BELANTILOB1:44:111:44:546:52 8.75337207SOSOYE
92.1736BAILLY Jacques57BEL1:44:391:45:146:53 8.72341199
93.869GENOT Yves56BELENJAMBEE1:44:411:45:306:54 8.70342198BRUXELLES
94.817CUGNON Andre55BEL1:45:521:46:226:58 8.63351181BANDE
95.249PIRSON Patrice55BELJCCS1:50:411:51:377:18 8.23361131GEDINNE
96.273BODET Michel55BELHRC1:51:351:52:207:21 8.17362123ROSSIGNOL
97.894LOUCHE Bernard57BELJAMES1:53:541:54:377:30 8.01366101MONT-SAINT-GUIBERT
98.13AUDRIT Philippe51BELSERSERUNNER1:54:411:55:307:33 7.9536892BONCELLES
99.8ANTOINE Alain51BELRCNAMUR1:55:361:56:027:35 7.9136984BOUGE
100.452DEWAELE Philippe51BEL5 ET +1:57:381:58:107:44 7.7737365THIBESSART
101.1581KLEINKENBERG Alain51BELKURISTO2:04:402:05:168:12 7.3338610WAHA
102.433EVRARD Michel55BELARCH2:04:392:05:188:12 7.333916CINEY
103.1629VAN MULLEM Herve51BELJOG'IN BASTOGNE2:09:072:10:028:30 7.063944
DNF: did not finish; DSQ: disqualified; Speed in km/h
Page: [1]